Flag for Ukraine Weather past 2 weeks in Kyiv, Ukraine

Now
59 °F

Passing clouds.


Feels Like: 60 °F
Forecast: 54 / 66 °F
Wind: 3 mph from Southeast

Location: Kyiv

Current Time: Sep 20, 2014 at 11:18:00 AM

Latest Report: Sep 20, 2014 at 10:30 AM


Visibility: N/A

Pressure: 30.21 "Hg

Humidity: 45%

Dew point: 37 °F

Location of KyivLocation

Historic Weather in Kyiv — Graph

°F

Kyiv temperature yesterday

Maximum temperature yesterday: 66 °F (at 2:00 PM)
Minimum temperature yesterday: 39 °F (at 3:30 AM)
Average temperature yesterday: 52 °F

Past Weeks' High & Low Weather Summary

 TemperatureHumidityPressure
High79 °F (Sep 8, 2:30 PM)100% (Sep 9, 5:00 AM)30.36 "Hg (Sep 9, 5:00 AM)
Low39 °F (Sep 19, 3:30 AM)26% (Sep 19, 3:30 PM)29.98 "Hg (Sep 7, 4:00 PM)
Average60 °F62%30.15 "Hg
* Reported Sep 5 10:00 AM — Sep 20 10:00 AM, Kyiv, Weather by CustomWeather, © 2014

Note: Actual official high and low records may vary slightly from our data, if they occured in-between our weather recording intervals... More about our weather records

Advertising

Kyiv weather history for previous 24 hours

 ConditionsComfort  
Time TempWeatherWind HumidityBarometerVisibility
10:00 AM
Sep 20
59 °FPassing clouds.3 mph45%30.21 "HgN/A
9:30 AM57 °FPassing clouds.3 mph48%30.21 "HgN/A
9:00 AM55 °FPassing clouds.3 mph55%30.21 "HgN/A
8:30 AM50 °FSunny.3 mph71%30.21 "Hg10 mi
8:00 AM48 °FSunny.6 mph76%30.21 "Hg10 mi
7:30 AM45 °FClear.6 mph81%30.21 "Hg10 mi
7:00 AM43 °FClear.6 mph81%30.21 "Hg10 mi
6:30 AM43 °FClear.3 mph81%30.21 "Hg10 mi
5:30 AM43 °FClear.3 mph81%30.21 "Hg10 mi
5:00 AM43 °FClear.3 mph76%30.24 "Hg10 mi
4:30 AM45 °FClear.3 mph71%30.24 "Hg10 mi
4:00 AM43 °FClear.6 mph76%30.24 "Hg10 mi
3:00 AM45 °FClear.6 mph71%30.24 "Hg10 mi
2:30 AM46 °FClear.3 mph62%30.24 "Hg10 mi
2:00 AM45 °FClear.3 mph61%30.24 "Hg10 mi
1:30 AM43 °FClear.No wind71%30.24 "Hg10 mi
1:00 AM46 °FClear.3 mph57%30.24 "Hg10 mi
12:30 AM45 °FClear.3 mph61%30.24 "Hg10 mi
12:00 AM45 °FClear.3 mph66%30.27 "Hg10 mi
11:30 PM
Sep 19
45 °FClear.No wind66%30.27 "Hg10 mi
11:00 PM45 °FClear.1 mph66%30.27 "Hg10 mi
10:30 PM46 °FClear.1 mph66%30.27 "Hg10 mi
10:00 PM46 °FClear.1 mph66%30.27 "Hg10 mi
9:30 PM46 °FClear.1 mph71%30.27 "Hg10 mi
9:00 PM48 °FClear.No wind62%30.27 "Hg10 mi
8:30 PM50 °FClear.1 mph58%30.27 "Hg10 mi
8:00 PM48 °FSunny.3 mph62%30.27 "Hg10 mi
7:30 PM57 °FSunny.3 mph39%30.27 "Hg10 mi
7:00 PM59 °FSunny.3 mph39%30.27 "Hg10 mi
6:30 PM61 °FSunny.3 mph36%30.27 "Hg10 mi
6:00 PM64 °FSunny.3 mph30%30.27 "Hg10 mi
5:30 PM66 °FPassing clouds.3 mph26%30.27 "HgN/A
5:00 PM66 °FPassing clouds.3 mph28%30.27 "HgN/A
4:30 PM66 °FPassing clouds.3 mph28%30.27 "HgN/A
4:00 PM66 °FPassing clouds.3 mph28%30.27 "HgN/A
3:30 PM66 °FPassing clouds.6 mph26%30.30 "HgN/A
3:00 PM66 °FPassing clouds.6 mph28%30.30 "HgN/A
2:30 PM66 °FPassing clouds.6 mph28%30.30 "HgN/A
2:00 PM66 °FPassing clouds.6 mph30%30.30 "HgN/A
1:30 PM64 °FSunny.3 mph32%30.33 "Hg10 mi
1:00 PM64 °FSunny.6 mph34%30.33 "Hg10 mi
12:30 PM64 °FPassing clouds.8 mph32%30.33 "HgN/A
12:00 PM64 °FPassing clouds.6 mph30%30.33 "HgN/A
11:30 AM64 °FPassing clouds.6 mph32%30.33 "HgN/A
11:00 AM63 °FPassing clouds.6 mph34%30.36 "HgN/A
Weather by CustomWeather, © 2014

See weather overviewHow to use our weather pages